x

Sentry Shoal (46131) Wave Buoy

6:00pm - Fri 17th Nov 2017 All times are PST. -8 hours from GMT.

  • Sig Wave height 0.3ft
  • Peak Period 2s
  • Wind
    13mph, 16mph gusts
  • Sea Temp 48°f
  • Air Temp 46°f
  • Sea Pressure 1020.9mb
  • Sentry Shoal
  • Sentry Shoal

More Historic Weather Station data

Upgrade to MSW Pro to gain access to the past 30 days of data for over 8000 Wavebouys and Weather Stations around the globe.

Join

Comparision Forecast

View Surf forecast
   
Fri 11/17 6:00pm 0.3ft 2s 13 16 mph 1020.9mb 48f 46f
5:00pm 0.3ft 4s 9 11 mph 1020.7mb 48f 46f
4:00pm 0.3ft 3s 4 7 mph 1020.6mb 48f 45f
3:00pm 0.3ft 2s 4 7 mph 1019.8mb 48f 45f
2:00pm 0.3ft 2s 4 4 mph 1019.4mb 48f 45f
1:00pm 0.3ft 3s  -  2 mph 1018.7mb 48f 46f
12:00pm 0.3ft 2s  -  0 mph 1018mb 48f 46f
11:00am 0.3ft 2s 2 2 mph 1017.2mb 48f 44f
10:00am 0.3ft 2s 2 4 mph 1016.2mb 48f 44f
9:00am 0.3ft 2s 4 7 mph 1015mb 48f 43f
8:00am 0.3ft 2s 4 4 mph 1013.8mb 48f 42f
7:00am 0.3ft 2s 4 7 mph 1012.3mb 48f 42f
6:00am 0.7ft 2s 7 9 mph 1011.1mb 48f 42f
5:00am 0.3ft 2s 9 9 mph 1010.1mb 48f 42f
4:00am 0.3ft 2s 7 9 mph 1009.2mb 48f 41f
3:00am 0.3ft 2s 4 7 mph 1008.6mb 48f 42f
2:00am 0.3ft 2s 4 7 mph 1007.9mb 48f 42f
1:00am 0.3ft 2s 9 9 mph 1007mb 48f 42f
12:00am 0.3ft 2s 7 9 mph 1006.2mb 48f 43f
Thu 11/16 11:00pm 0.3ft 3s 4 7 mph 1005.5mb 48f 43f
10:00pm 0.3ft 2s 4 7 mph 1004.6mb 48f 43f
9:00pm 0.3ft 2s 7 9 mph 1003.7mb 48f 43f
8:00pm 0.7ft 2s 9 9 mph 1003.1mb 48f 43f
7:00pm 0.7ft 2s 9 11 mph 1002.5mb 49f 43f
6:00pm 0.7ft 3s 7 9 mph 1002.2mb 48f 44f
5:00pm 0.7ft 3s 2 4 mph 1001.8mb 48f 45f
4:00pm 0.7ft 3s 7 11 mph 1001.5mb 49f 45f
3:00pm 0.3ft 2s 2 7 mph 1001.2mb 49f 45f
2:00pm 0.3ft 2s  -  2 mph 1001.3mb 49f 45f
1:00pm 0.3ft 3s 2 4 mph 1001.3mb 49f 45f
12:00pm 0.3ft 2s 2 4 mph 1001.3mb 49f 45f
11:00am 0.3ft 2s 2 4 mph 1001.2mb 49f 44f
10:00am 0.3ft 2s 2 4 mph 1001mb 49f 44f
9:00am 0.3ft 2s 4 4 mph 1000.4mb 49f 44f
8:00am 0.3ft 2s 4 7 mph 1000mb 48f 42f
7:00am 0.3ft 2s 4 4 mph 999.3mb 48f 42f
6:00am 0.3ft 2s 7 7 mph 998.6mb 48f 43f
5:00am 0.7ft 3s 4 7 mph 998.1mb 48f 42f
4:00am 0.7ft 3s 7 9 mph 997.7mb 48f 41f
3:00am 0.7ft 4s 2 4 mph 997.5mb 48f 42f
2:00am 1ft 4s 7 9 mph 997.1mb 48f 45f
1:00am 1ft 4s 4 4 mph 996.9mb 49f 44f
12:00am 1ft 4s 9 11 mph 996.8mb 49f 45f
Wed 11/15 11:00pm 1.3ft 4s 11 13 mph 996.7mb 49f 45f
10:00pm 2.5ft 4s 13 16 mph 997mb 49f 45f
9:00pm 3.5ft 4s 18 22 mph 996.9mb 49f 47f
8:00pm 3.5ft 4s 22 27 mph 996.8mb 49f 46f
7:00pm 3.5ft 5s 22 27 mph 996.7mb 49f 47f
6:00pm 3.5ft 5s 22 27 mph 997mb 49f 47f
5:00pm 4.5ft 5s 22 27 mph 997.2mb 49f 47f
4:00pm 5ft 5s 25 29 mph 997.2mb 49f 47f
3:00pm 4.5ft 5s 25 29 mph 996.9mb 49f 48f
2:00pm 4.5ft 5s 25 31 mph 997.6mb 49f 48f
1:00pm 4.5ft 5s 25 31 mph 997.3mb 49f 48f
12:00pm 3.5ft 4s 27 31 mph 997.5mb 49f 48f
11:00am 3.5ft 4s 25 31 mph 998.7mb 49f 47f
10:00am 3ft 4s 25 31 mph 998.5mb 49f 48f
9:00am 2.5ft 4s 20 27 mph 998.7mb 49f 48f
8:00am 1.6ft 4s 9 11 mph 998.7mb 49f 45f
7:00am 2.5ft 5s 18 20 mph 998.3mb 49f 45f
6:00am 4ft 5s 16 18 mph 998.3mb 49f 44f
5:00am 4.5ft 5s 25 29 mph 997.1mb 49f 46f
4:00am 4.5ft 6s 16 20 mph 997.9mb 49f 45f
3:00am 5ft 6s 16 22 mph 998.3mb 49f 46f
2:00am 5ft 5s 27 36 mph 998mb 49f 48f
1:00am 5ft 6s 27 34 mph 998.3mb 49f 48f
12:00am 5ft 6s 31 38 mph 998.2mb 49f 48f
Tue 11/14 11:00pm  -   -  22
mph
1000.2mb 49f 46f
10:00pm 5ft 6s 31 38 mph 1000.6mb 49f 46f
8:00pm 4.5ft 5s 27 34 mph 1001.8mb 49f 48f
7:00pm 4.5ft 5s 27 31 mph 1002.6mb 49f 47f
6:00pm 4.5ft 5s 27 31 mph 1003.3mb 49f 46f
5:00pm 5ft 5s 27 31 mph 1003.8mb 49f 47f
4:00pm 4.5ft 5s 31 38 mph 1004.2mb 49f 46f
3:00pm 5ft 5s 25 29 mph 1004.8mb 49f 48f
2:00pm 5ft 5s 25 36 mph 1005.3mb 49f 47f
1:00pm 5.5ft 6s 29 36 mph 1005.8mb 49f 47f
12:00pm 6ft 6s 31 38 mph 1006.2mb 49f 48f
11:00am 5.5ft 6s 29 36 mph 1007.3mb 49f 48f
10:00am  -   -  27
mph
1007.4mb 49f 47f
9:00am 6.5ft 6s 31 38 mph 1006.9mb 49f 47f
8:00am 7ft 6s 31 38 mph 1007.1mb 49f 47f
7:00am 7ft 6s 34 40 mph 1006.6mb 49f 48f
6:00am 5ft 5s 31 38 mph 1006.4mb 49f 48f
5:00am 5ft 5s 25 31 mph 1007.1mb 49f 47f
4:00am 5ft 5s 29 34 mph 1007.3mb 49f 47f